SCP
0 0 0 0 0 0 0 0 0 0 0 0 0 0 0 0 0 0 0 0 0 0 0 0 0 1 1 0 0 0 0 0 0 0 0 0 0 0 0 0 0 0 0 0
0 0 0 0 0 0 0 0 0 0 0 0 0 0 0 0 0 0 0 0 0 0 0 0 0 1 1 0 0 0 0 0 0 0 0 0 0 0 0 0 0 0 0 0
0 0 0 0 0 0 0 0 0 0 0 0 0 0 0 0 0 0 0 0 0 0 0 0 0 1 1 1 0 0 0 0 0 0 0 0 0 0 0 0 0 0 0 0
0 0 0 0 0 0 0 0 0 0 0 0 0 0 0 0 0 0 0 0 0 0 0 0 0 1 1 0 0 0 0 0 0 0 0 0 0 0 0 0 0 0 0 0
0 0 0 0 0 0 0 0 0 0 0 0 0 0 0 0 0 0 0 0 0 0 0 0 0 0 0 0 0 0 0 0 0 0 0 0 0 0 0 0 0 0 0 0
0 0 0 0 0 0 0 0 0 0 0 0 0 0 0 0 0 0 0 0 0 0 0 0 0 0 0 0 0 0 0 0 0 0 0 0 0 0 0 0 0 0 0 0
0 0 0 0 0 0 0 0 0 0 0 0 0 0 0 0 0 0 0 0 0 0 0 0 0 0 0 0 0 0 0 0 0 0 0 0 0 0 0 0 0 0 0 0
0 0 0 0 0 0 0 0 0 0 0 0 0 0 0 0 0 0 0 0 0 0 0 0 0 0 0 0 0 0 0 0 0 0 0 0 0 0 0 0 0 0 0 0
0 0 0 0 0 0 0 0 0 0 0 0 0 0 0 0 0 0 0 0 0 0 0 0 0 0 0 0 0 0 0 0 0 0 0 0 0 0 0 0 0 0 0 0
0 0 0 0 0 0 0 0 0 0 0 0 0 0 0 -0 0 0 0 0 0 0 0 0 0 0 0 0 0 0 0 0 0 0 0 0 0 0 0 0 0 0 0 0
0 0 0 0 0 0 0 0 0 0 0 0 0 0 0 -0 0 0 0 0 0 0 0 0 0 0 0 0 0 0 0 0 0 0 0 0 0 0 0 0 0 0 0 0
0 0 0 0 0 0 0 0 0 0 0 0 0 0 0 0 0 0 0 0 0 0 0 0 0 0 0 0 0 0 0 0 0 0 0 0 0 0 0 0 0 0 0 0
0 0 0 0 0 0 0 0 0 0 0 0 0 0 0 0 0 0 0 0 0 0 0 0 0 0 0 0 0 0 0 0 0 0 0 0 0 0 0 0 0 0 0 0
0 0 0 0 0 0 0 0 0 0 0 0 0 0 0 0 0 0 0 0 0 0 0 0 0 0 0 0 0 0 0 0 0 0 0 0 0 0 0 0 0 0 0 0
0 0 0 0 0 0 0 0 0 0 0 0 0 0 0 0 0 0 0 0 0 0 0 0 0 0 0 0 0 0 0 0 0 0 0 0 0 0 0 0 0 0 0 0
0 0 0 0 0 0 0 0 0 0 0 0 0 0 0 0 0 0 0 0 0 0 0 0 0 0 0 0 0 0 0 0 0 0 0 0 0 0 0 0 0 0 0 0
0 0 0 0 0 0 0 0 0 0 0 0 0 0 0 0 0 0 0 0 0 0 0 0 0 0 0 0 0 0 0 0 0 0 0 0 0 0 0 0 0 0 0 0
0 0 0 0 0 0 0 0 0 0 0 0 0 0 0 0 0 0 0 0 0 0 0 0 0 0 0 0 0 0 0 0 0 0 0 0 0 0 0 0 0 0 0 0
0 0 0 0 0 0 0 0 0 0 0 0 0 0 0 0 0 0 0 0 0 0 0 0 0 0 0 0 0 0 0 0 0 0 0 0 0 0 0 0 0 0 0 0
0 0 0 0 0 0 0 0 0 0 0 0 0 0 0 0 0 0 0 0 0 0 0 0 0 0 0 0 0 0 0 0 0 0 0 0 0 0 0 0 0 0 0 0
0 0 0 0 0 0 0 0 0 0 0 0 0 0 0 0 0 0 0 0 0 0 0 0 0 0 0 0 0 0 0 0 0 0 0 0 0 0 0 0 0 0 0 0
0 0 0 0 0 0 0 0 0 0 0 0 0 0 0 0 0 0 0 0 0 0 0 0 0 0 0 0 0 0 0 0 0 0 0 0 0 0 0 0 0 0 0 0
0 0 0 0 0 0 0 0 0 0 0 0 0 0 0 0 0 0 0 0 0 0 0 0 0 0 0 0 0 0 0 0 0 0 0 0 0 0 0 0 0 0 0 0
0 0 0 0 0 0 -0 -0 -0 0 0 0 0 0 0 0 0 0 0 0 0 0 0 0 0 0 0 0 0 0 0 0 0 0 0 0 0 0 0 0 0 0 0 0
0 0 0 0 0 -0 -0 -0 -0 0 0 0 0 0 0 0 0 0 0 0 0 0 0 0 0 0 0 0 0 0 0 0 0 0 0 0 0 0 0 0 0 0 0 0
0 0 0 0 0 -0 -0 -0 -0 0 0 0 0 0 0 0 0 0 0 0 0 0 0 0 0 0 0 0 0 0 0 0 0 0 0 0 0 0 0 0 0 0 0 0
Wind_Speed
3 5 3 5 5 4 3 1 3 5 3 1 3 3 3 5 6 6 7 7 7 6 5 6 8 8 8 8 8 8 8 7 6 4 4 3 3 3 3 4 5 6 6 7
5 2 5 4 4 3 2 0 2 4 2 1 0 2 1 4 7 7 7 7 7 5 5 6 7 7 8 9 9 9 9 8 8 5 4 3 3 3 3 3 4 6 7 7
5 4 3 4 3 2 2 4 3 2 3 4 3 5 2 1 2 3 4 4 5 7 7 7 7 7 7 8 9 8 8 7 7 6 3 2 2 1 2 3 4 5 6 7
4 4 3 3 3 5 4 5 5 2 2 2 2 1 5 3 3 4 5 5 6 6 6 6 7 6 7 7 6 6 7 7 6 6 6 6 5 5 5 4 4 4 5 6
5 3 4 4 5 7 5 1 2 2 3 2 3 2 7 2 4 7 7 7 7 6 7 7 6 6 5 5 6 6 6 6 6 7 7 6 4 3 2 2 3 4 4 5
4 3 4 6 3 5 4 6 7 6 5 2 1 2 6 4 6 5 4 5 5 6 6 5 4 4 3 4 4 5 6 5 6 6 6 6 6 4 4 4 4 3 3 3
2 3 3 3 2 2 5 7 5 5 4 4 3 2 8 6 6 6 5 4 4 5 6 5 5 5 4 4 5 5 6 5 5 5 5 6 6 5 6 5 5 4 3 3
4 5 4 5 7 6 5 9 9 5 4 4 2 4 7 5 5 3 3 4 4 5 5 5 4 5 4 5 5 5 6 5 5 5 5 4 5 4 3 4 4 5 4 4
7 6 4 4 5 10 7 4 7 8 3 0 4 6 8 2 3 2 4 6 5 6 5 5 5 5 4 4 5 5 5 4 4 4 4 3 3 3 3 3 3 3 3 3
9 3 3 2 5 4 6 10 7 7 6 2 4 4 5 5 3 1 3 5 5 5 5 4 4 4 4 3 4 4 4 4 3 3 2 2 2 2 2 2 2 2 3 3
6 4 3 2 4 6 5 5 6 6 6 7 3 8 7 7 6 5 5 5 6 6 5 5 4 4 4 4 4 4 4 3 3 2 2 2 1 1 1 1 1 2 2 2
6 6 2 5 3 3 5 8 9 7 4 5 5 9 4 4 4 5 4 4 5 5 5 5 5 5 5 4 4 4 3 4 3 3 2 2 2 2 1 1 0 0 1 1
8 7 3 5 5 1 3 4 5 7 7 5 5 8 2 1 2 3 5 5 5 6 6 5 5 4 4 4 4 4 4 4 4 4 3 3 3 2 2 1 1 1 1 1
8 6 8 9 8 5 4 4 6 7 6 6 8 8 4 4 4 4 5 6 6 6 6 5 4 4 4 4 4 4 4 4 5 5 4 4 3 3 2 2 2 2 2 2
6 5 4 4 3 4 3 5 7 6 9 9 9 8 9 9 9 7 7 7 7 7 6 6 5 4 4 4 4 4 4 4 5 5 5 4 4 4 3 3 3 3 3 3
4 5 3 0 1 3 2 3 6 5 5 5 3 7 6 4 6 6 8 9 9 8 7 6 6 6 5 4 5 5 5 5 5 5 5 4 4 4 4 4 4 4 4 3
2 5 5 2 1 2 2 4 5 4 4 7 8 8 5 6 9 10 9 9 9 8 7 7 6 6 5 5 5 6 5 5 6 5 5 5 4 4 4 4 5 5 4 4
5 5 4 3 3 4 7 3 3 3 3 4 4 4 8 7 6 5 6 8 9 8 8 6 6 5 5 5 6 6 7 6 6 6 5 5 5 5 5 5 5 4 4 4
4 7 5 4 4 2 4 2 3 4 3 4 5 5 6 9 7 2 3 5 7 7 7 6 6 6 6 6 7 8 7 7 6 6 5 5 5 5 5 5 4 4 4 5
4 5 6 5 5 6 7 2 1 3 4 4 6 9 10 9 6 5 6 7 8 8 7 7 7 7 7 6 7 8 7 6 6 5 5 5 5 5 5 4 4 4 4 5
3 4 4 4 3 6 5 2 2 4 8 3 6 9 10 6 5 7 10 9 9 9 9 8 8 7 5 5 7 8 7 6 5 5 6 5 5 5 5 4 4 4 5 6
3 4 4 4 4 6 2 1 5 6 2 3 5 7 7 6 9 10 10 10 11 10 10 9 8 7 5 5 8 8 6 5 6 6 7 6 5 5 5 5 5 5 5 6
2 4 5 6 6 4 2 4 4 2 2 2 5 6 9 9 9 9 9 10 9 10 9 8 9 8 5 5 6 8 6 6 7 7 7 6 7 7 6 6 6 5 5 5
1 1 2 1 4 3 4 4 3 1 2 2 6 9 9 10 10 10 9 9 9 8 9 8 9 8 6 5 5 6 6 6 8 8 7 6 7 7 7 6 5 5 4 4
3 2 1 2 3 4 4 3 2 2 3 6 7 7 9 12 11 10 9 9 8 8 7 8 8 8 7 6 6 6 6 7 9 8 7 7 6 7 7 8 7 6 5 3
4 5 5 5 5 3 3 3 1 3 4 7 9 8 8 10 11 10 9 8 8 8 7 8 8 8 7 7 6 6 5 7 9 7 6 5 5 6 6 7 8 13 11 13
Wind_Direction
76 84 180 199 178 160 146 152 272 263 260 173 226 240 217 176 180 190 194 193 200 202 188 176 177 181 183 182 175 179 190 187 173 169 177 184 199 200 198 205 204 198 193 186
54 254 219 172 159 150 150 297 289 301 350 102 199 305 245 187 196 194 197 200 200 185 174 178 177 177 185 186 183 182 188 185 183 185 179 175 174 192 203 204 203 202 196 188
169 225 163 148 159 173 214 199 221 257 357 32 69 359 330 267 208 195 196 195 191 189 187 184 181 186 182 187 190 190 184 183 181 169 144 129 123 130 178 201 205 207 200 196
212 241 176 175 200 165 247 222 197 191 82 336 55 295 287 280 258 230 215 199 195 189 179 184 186 186 186 188 184 177 173 176 172 165 168 172 181 192 201 197 201 200 199 200
220 206 177 199 210 174 211 145 131 114 127 56 24 132 283 325 256 248 228 208 195 181 176 188 189 187 183 171 173 172 170 173 173 176 182 185 193 198 181 178 187 196 200 201
219 223 199 203 197 174 143 71 55 47 69 56 270 164 272 245 235 252 230 202 187 168 168 176 168 157 154 150 159 164 170 179 178 181 185 189 192 191 185 190 194 198 204 203
266 260 233 183 131 84 104 90 42 14 21 255 278 205 250 257 250 237 223 192 170 153 150 151 151 155 156 156 160 161 168 177 178 180 186 193 197 194 201 201 201 200 205 210
177 266 233 191 175 166 161 137 151 175 204 270 325 239 259 274 284 245 172 142 133 138 141 143 153 154 154 157 153 155 168 177 178 185 192 195 196 197 207 207 202 207 214 218
172 242 275 226 183 141 133 159 152 125 141 47 292 290 301 315 358 67 112 118 129 137 140 142 147 148 145 149 152 156 160 166 176 185 183 182 186 194 205 209 207 214 220 222
152 204 285 297 95 47 136 140 108 117 138 209 293 282 256 267 256 181 142 139 135 132 133 135 139 140 138 139 133 130 140 153 157 155 161 162 174 194 201 199 208 223 233 234
139 155 304 17 162 165 113 102 104 107 141 149 210 265 231 221 218 197 181 158 147 145 144 143 145 136 124 112 115 122 126 116 106 114 122 118 128 155 166 195 224 226 226 213
147 127 222 263 264 174 154 159 145 144 184 162 165 259 273 220 206 182 166 148 142 139 135 138 133 126 122 120 122 121 117 111 107 104 99 102 93 79 76 66 296 207 196 201
140 124 108 340 339 86 148 155 143 121 117 147 163 258 309 130 154 162 150 140 138 130 124 122 121 121 124 127 124 116 111 110 105 99 93 84 76 77 68 38 28 57 68 59
124 122 158 186 209 188 167 157 144 125 142 182 211 235 260 214 190 175 158 150 145 139 136 133 129 123 124 126 128 129 119 111 105 99 92 81 71 64 56 52 52 53 56 55
114 146 185 211 204 166 176 173 165 169 175 177 218 218 232 208 191 180 164 153 150 147 143 142 136 131 128 125 121 113 105 100 100 98 90 82 74 68 61 55 52 51 50 48
81 141 147 220 189 174 175 186 174 182 172 189 197 240 237 173 153 161 163 161 162 159 154 146 137 135 131 130 122 110 104 97 95 94 91 84 80 74 67 58 52 51 47 46
94 119 118 199 254 104 226 210 184 187 187 171 196 223 163 160 175 178 172 169 167 163 155 148 144 142 135 130 122 119 110 100 95 91 86 82 82 77 67 65 59 53 49 51
134 113 122 136 118 190 239 256 191 173 205 206 214 194 177 174 156 150 162 165 161 156 151 145 139 127 120 117 109 105 101 100 98 91 83 78 77 74 65 60 54 47 51 56
150 133 119 122 148 246 288 246 165 163 237 216 189 160 141 123 97 90 161 152 151 147 140 133 125 120 119 118 117 110 102 100 97 90 84 79 81 80 73 64 53 46 56 58
68 97 114 126 140 204 232 249 206 120 271 230 177 159 150 135 151 202 158 129 123 119 116 116 112 108 110 113 116 111 107 103 97 90 84 80 84 87 81 73 63 57 62 60
61 67 113 142 170 242 249 283 112 164 238 210 171 164 160 170 177 145 131 122 121 117 114 110 106 104 107 114 114 110 106 101 97 91 84 78 78 82 79 74 69 70 72 70
155 138 155 140 158 234 295 61 178 216 251 167 165 158 141 121 118 125 128 127 124 119 115 112 109 100 97 107 115 112 108 104 99 94 86 78 71 76 75 74 69 69 77 79
176 181 178 182 205 246 273 251 267 238 204 187 156 140 131 128 130 130 127 124 121 120 116 114 112 104 93 94 115 118 113 110 105 95 87 83 78 69 67 71 70 65 64 76
281 134 141 259 278 287 299 300 309 283 199 165 143 139 137 134 134 130 129 126 121 117 117 116 113 110 102 95 97 107 112 110 104 96 89 87 87 77 65 61 61 67 63 76
229 164 150 254 278 315 320 329 333 46 93 112 113 120 132 132 135 135 132 130 124 117 113 114 116 117 115 110 103 102 108 111 105 99 97 93 89 90 79 68 54 59 49 67
210 184 179 219 224 200 262 305 330 109 113 123 118 109 117 129 131 127 124 122 119 117 116 113 112 115 116 113 106 102 106 113 111 105 100 99 97 92 91 91 74 56 63 64